Simultaneous Nadir Overpasses (SNOs) Predictions

Prediction of SNOs between AQUA and METOP-B Satellite Orbit:

Table of predicted SNOs for the next 14.0 days since TLE Epoch: 8/13/2022
Index Date (AQUA) Time (AQUA) Lat,Lon (AQUA) SZA (AQUA ) Date (METOP-B) Time (METOP-B) Lat,Lon (METOP-B) SZA (METOP-B ) Distance(km) Time Diff (sec)
1 08/15/2022 06:26:36 74.04, 78.02 60.03 08/15/2022 06:26:11 74.06, 78.11 60.05 3.18 25
2 08/15/2022 07:16:02 -74.08,-114.42 119.92 08/15/2022 07:16:52 -74.09,-114.49 119.91 2.26 50
3 08/18/2022 01:10:43 -74.00, -22.90 119.14 08/18/2022 01:09:53 -74.01, -22.94 119.12 1.31 50
4 08/18/2022 02:00:11 74.07, 144.59 60.95 08/18/2022 02:00:32 74.05, 144.50 60.93 3.29 21
5 08/20/2022 19:54:48 73.81,-123.48 61.56 08/20/2022 19:53:37 73.76,-124.45 61.56 30.32 71
6 08/20/2022 20:44:18 -74.04, 43.63 118.18 08/20/2022 20:44:13 -74.04, 43.56 118.18 2.09 5
7 08/20/2022 21:33:46 74.11,-148.89 61.91 08/20/2022 21:34:51 74.14,-148.88 61.92 2.66 65
8 08/23/2022 15:28:25 74.03, -57.36 62.73 08/23/2022 15:27:51 74.04, -57.36 62.75 1.71 34
9 08/23/2022 16:17:52 -74.10, 110.11 117.18 08/23/2022 16:18:31 -74.13, 110.17 117.16 3.25 39
10 08/26/2022 10:12:32 -74.03,-158.38 116.32 08/26/2022 10:11:32 -74.03,-158.31 116.31 2.07 60
11 08/26/2022 11:01:59 74.06, 9.19 63.73 08/26/2022 11:02:11 74.07, 9.12 63.74 2.52 12



Historial Predications of SNOs between AQUA and METOP-B
